Torna al catalogo

STARLINK-2415

AttivoComunicazioniVLEO
NORAD 47828·PAYLOAD·🇺🇸 United States

Lanciato Mar 11, 2021 da Cape Canaveral Space Force Station

Loading…

Prossimi Passaggi (prossime 24 ore)

TLE

AggiornatoSource: CelesTrak SupGP

Epoca: Sep 15, 2026, 02:41 UTC

1 47828C 21018AT  26258.11229167 -.00008452  00000+0 -27158-3 0  2587
2 47828  53.1579  93.7707 0001517  73.6224 179.0143 15.31728689    18

Traccia STARLINK-2415 in tempo reale con AllMySat

Download on the App Store